User: anonymous   Login
Location: Unspecified
(0.0000°N, 0.0000°E)
Time: 19:13:06
(UTC+00:00)
Language:

STARLINK-35926 - Orbit

View from above orbital plane
View from above orbital plane
View from above satellite
View from above satellite

Ground track
Ground track

The orbit is defined by the following mean orbital elements,

1 66642U          26145.36996029 +.00000000 +00000-0 +35745-3 0 00006
2 66642  53.1573 143.9786 0001290  72.9901 287.1241 15.30201184    08
Epoch (UTC): 25 May 2026 08:52:44
Eccentricity: 0.0001290
inclination: 53.1573°
perigee height: 474 km
apogee height: 476 km
right ascension of ascending node: 143.9786°
argument of perigee: 72.9901°
revolutions per day: 15.30201184
mean anomaly at epoch: 287.1241°

The dashed part of the orbit path shows where the satellite is in the earth's shadow,  

DLR